Wind_Speed
10 10 8 6 5 5 10 4 3 4 3 1 4 3 6 4 6 2 2 4 3 8 5 10 12 12 12 14 13 11 10 10 8 6 5 5 4 4 3 5 8 10 9 10 10 10 10 7 7
5 8 8 4 5 8 8 6 5 3 5 2 2 3 3 4 5 3 1 1 3 7 9 9 10 11 11 13 14 12 11 10 9 7 6 5 6 4 3 6 10 8 9 9 10 10 9 6 7
7 8 6 4 5 10 4 2 6 4 1 3 4 4 2 4 4 3 4 2 8 7 12 10 9 10 11 12 13 12 11 11 10 8 7 5 7 5 3 6 11 9 9 9 10 9 7 4 6
7 3 3 5 10 3 3 3 4 3 2 2 2 5 3 3 1 4 0 3 4 8 13 11 9 9 11 11 12 13 11 11 10 8 8 8 7 4 4 7 11 11 9 8 10 10 5 5 5
5 5 6 7 9 3 1 3 1 3 2 2 2 2 2 2 5 5 3 3 4 10 12 12 11 10 11 12 12 12 12 11 10 9 8 10 9 7 5 8 10 13 11 10 9 9 5 6 4
5 4 6 10 8 3 2 2 1 4 1 1 5 3 5 3 4 4 5 5 2 6 11 10 12 12 12 13 13 13 12 13 12 11 10 10 11 9 7 8 8 11 12 12 10 8 6 6 4
9 6 9 4 1 6 3 2 6 2 3 4 3 6 5 5 1 1 2 4 4 3 8 10 11 12 12 13 15 15 15 15 14 14 11 11 12 10 8 8 9 10 12 12 11 8 7 6 4
4 4 4 5 6 3 2 2 1 5 4 2 2 4 3 6 2 5 3 1 1 3 4 7 12 11 14 15 16 15 15 16 16 16 14 12 13 11 11 12 11 12 13 13 12 9 8 6 5
1 4 6 3 2 5 2 2 1 3 8 5 6 5 2 2 4 5 5 5 5 6 6 5 6 7 12 14 16 17 17 17 17 17 17 16 15 15 16 15 14 15 14 15 14 12 10 9 7
5 5 5 6 5 5 3 5 7 6 7 12 12 11 10 9 8 10 11 10 10 10 12 13 11 9 8 9 11 14 16 20 20 20 20 20 18 17 17 18 17 16 17 17 16 14 12 11 11
2 4 6 1 4 5 7 10 10 12 10 15 15 15 13 14 15 16 16 16 15 13 14 17 17 17 15 12 12 8 9 12 21 22 23 22 21 20 19 20 20 19 19 19 19 19 17 14 10
5 4 5 3 4 7 10 11 14 16 22 21 21 20 19 21 22 21 22 21 21 21 22 22 23 23 21 21 19 16 12 10 10 15 23 24 25 26 23 24 23 23 23 22 21 21 19 16 15
6 2 6 10 11 14 16 18 18 23 24 22 22 22 24 25 27 27 27 28 30 29 29 30 30 29 28 26 26 24 22 19 15 14 14 22 25 27 27 23 25 27 26 24 23 21 17 17 17
2 5 10 10 12 12 16 20 17 9 6 10 14 19 23 25 25 25 26 29 28 31 34 39 39 38 35 33 33 31 27 26 25 22 19 17 22 25 26 26 26 27 28 25 26 24 21 19 18
2 7 8 8 8 7 12 16 13 10 10 15 16 19 21 22 22 25 27 29 31 31 32 32 37 42 45 43 39 38 38 35 32 31 29 24 26 25 28 29 29 29 28 27 28 26 23 21 19
4 3 4 6 2 1 5 12 5 3 8 16 18 20 21 26 28 28 30 32 33 35 39 41 37 36 39 44 47 47 45 44 41 39 36 33 30 30 30 30 33 32 29 30 31 30 27 26 22
3 5 6 8 1 5 5 15 6 11 19 26 28 28 28 29 27 26 26 27 30 33 38 40 41 43 43 44 43 47 49 48 44 42 42 38 36 35 34 34 32 34 33 34 33 32 32 30 27
4 7 5 8 2 11 18 27 22 25 25 27 28 27 27 25 21 19 19 20 24 28 33 36 37 40 46 43 47 45 46 48 48 43 41 42 41 38 38 37 33 34 36 38 38 37 34 32 33
3 5 10 14 12 13 14 22 21 27 26 24 20 15 16 17 18 22 26 29 33 34 35 36 40 40 37 43 40 42 43 41 44 51 46 41 43 43 34 35 37 38 38 40 41 40 39 37 30
5 9 12 10 2 11 16 27 25 12 3 5 7 10 17 26 31 35 35 34 36 37 36 36 37 37 39 40 45 42 39 41 41 42 45 46 41 43 39 33 37 40 39 41 43 42 41 38 39
7 10 10 8 16 14 11 12 1 7 2 3 9 20 28 32 34 33 33 34 35 36 35 34 35 35 37 38 37 39 36 38 39 42 40 42 45 43 46 47 41 36 43 44 43 44 43 43 40
4 2 5 9 9 4 12 5 5 4 2 5 21 30 33 32 32 34 35 36 34 34 32 33 33 34 36 35 36 38 38 39 42 42 39 39 42 45 43 44 42 37 35 44 43 44 44 43 45
4 4 9 8 8 8 5 3 4 3 9 16 27 33 32 31 33 35 37 35 32 31 32 31 31 31 33 33 36 38 40 41 41 38 35 37 37 42 41 44 44 42 43 34 43 42 43 50 46
9 7 6 2 3 3 5 3 3 7 15 24 30 33 33 33 33 35 36 35 31 27 25 24 25 30 32 32 33 38 43 42 39 37 36 35 38 37 40 41 42 41 44 46 36 40 43 47 45
6 3 2 3 4 1 2 4 5 8 18 23 30 38 36 35 37 37 39 37 23 19 19 19 22 29 30 32 34 37 42 44 39 36 36 34 34 38 37 38 37 40 37 41 42 43 42 45 47
2 1 3 4 4 5 3 5 1 4 20 27 28 31 34 37 36 38 39 36 22 16 17 19 22 24 26 28 32 35 40 42 41 38 33 31 32 34 37 36 37 35 34 35 35 39 40 44 44
1 0 2 3 2 4 2 4 6 9 19 25 26 29 32 34 35 35 35 29 24 18 19 18 19 19 20 21 25 29 33 35 38 40 34 31 28 28 29 35 34 35 31 28 32 35 43 41 45
2 3 1 2 4 5 4 6 4 13 14 16 19 26 30 32 35 36 36 33 29 27 19 18 17 18 15 14 15 19 26 31 35 35 37 33 29 26 25 28 31 30 30 30 30 35 36 42 39
3 2 2 1 2 3 5 2 5 7 8 12 17 25 28 32 34 36 37 35 32 27 23 18 19 17 16 15 17 19 22 26 31 33 33 35 34 28 27 26 28 30 28 28 29 31 34 37 45
2 3 2 2 1 4 4 5 4 7 6 10 13 19 25 32 35 38 40 38 35 33 30 25 16 15 15 16 18 21 20 22 26 31 35 39 35 31 30 28 27 28 29 29 29 30 32 36 38
Wind_Direction
128 142 142 154 215 234 246 175 19 163 201 147 337 318 350 6 354 27 332 334 203 174 186 190 187 196 194 192 192 188 188 193 192 190 195 184 178 156 152 145 143 140 136 145 145 142 141 138 127
140 146 140 193 250 216 233 97 197 151 57 261 220 248 237 116 44 61 147 291 180 174 186 193 184 198 197 197 200 200 197 200 202 205 216 191 186 187 168 158 152 147 155 153 161 157 155 137 124
132 163 196 206 240 241 266 133 127 120 132 199 191 238 355 53 53 27 328 148 158 144 178 198 198 198 201 198 203 206 202 201 205 209 199 206 193 205 189 174 162 170 177 170 175 169 180 145 128
149 186 249 239 215 161 351 95 73 179 167 190 289 185 110 37 53 29 181 202 153 182 178 182 183 205 208 207 207 207 207 204 204 207 216 219 230 226 217 189 178 180 193 191 187 188 203 163 149
132 216 239 242 229 89 202 84 195 210 91 181 229 177 117 108 96 62 140 163 184 180 189 190 189 200 206 208 212 214 213 214 217 222 227 220 226 230 226 197 185 188 201 202 189 195 198 168 162
202 260 230 230 201 183 215 152 273 235 156 145 234 273 118 150 133 52 61 64 177 187 197 203 200 212 209 212 214 217 219 220 225 228 233 229 222 224 223 197 193 196 200 201 203 203 200 178 175
258 233 253 290 208 171 157 308 240 288 243 187 334 261 95 159 161 96 70 59 70 144 207 218 219 213 212 216 218 219 225 227 228 234 235 226 226 228 221 209 200 205 198 206 202 204 204 191 189
283 274 252 217 212 144 85 261 316 266 247 6 276 255 215 168 230 217 221 200 222 158 163 196 220 225 218 219 221 221 224 225 231 233 230 226 226 226 216 206 207 209 201 203 205 212 205 209 203
272 255 249 232 253 81 93 311 199 283 271 248 246 267 327 283 255 258 260 254 248 226 217 197 192 205 217 228 230 228 225 227 228 229 229 224 225 223 216 211 213 208 206 209 207 213 212 214 218
231 256 322 40 358 315 311 297 317 293 253 244 250 260 261 281 270 264 259 255 257 252 241 231 225 217 215 212 218 226 229 229 229 229 230 225 223 221 216 217 220 211 210 212 213 219 217 217 225
185 253 34 275 324 312 295 286 276 272 267 258 264 265 261 263 266 264 262 259 259 261 257 244 240 236 230 224 223 227 231 240 231 228 230 227 218 216 219 221 219 216 214 216 216 216 216 212 209
229 276 278 297 291 293 287 297 277 266 263 272 273 273 270 268 266 265 264 263 265 264 260 259 252 247 242 239 234 229 233 233 236 244 225 233 224 217 218 221 220 218 218 216 222 218 215 212 199
244 243 277 278 284 284 287 276 271 272 272 271 270 269 268 266 265 266 265 264 261 260 256 254 256 256 252 249 244 241 236 234 234 229 237 232 230 225 222 220 226 219 218 217 221 213 213 209 211
14 281 279 283 285 287 286 284 274 258 273 268 273 266 267 266 266 267 266 267 265 266 265 262 258 256 256 254 253 247 243 241 237 230 233 228 232 231 228 220 226 225 219 219 219 223 206 217 213
282 296 285 255 284 286 320 278 230 258 266 271 271 268 269 269 269 266 265 264 264 263 259 260 260 258 255 253 252 252 251 246 243 241 237 238 237 230 228 225 218 227 223 218 221 225 210 216 217
266 265 310 110 236 310 339 267 275 178 283 280 282 277 276 279 277 273 270 270 268 268 268 264 258 255 257 255 253 252 253 253 252 247 245 241 240 241 234 232 232 234 226 221 218 221 217 212 215
197 288 289 309 58 306 250 295 296 301 283 280 280 279 281 285 282 278 274 271 271 269 269 265 260 257 256 254 252 254 252 250 251 251 249 245 244 243 245 239 232 236 225 225 227 227 222 215 214
341 301 301 290 309 290 286 278 284 288 286 286 285 285 285 285 285 288 282 278 279 279 275 272 266 262 255 258 256 253 252 250 246 242 243 246 243 243 244 241 234 231 230 230 233 229 226 221 222
319 280 286 289 303 307 280 285 293 292 292 290 289 293 293 290 295 294 291 285 285 283 279 268 267 262 259 250 246 246 245 246 246 243 238 238 242 242 232 243 238 232 233 233 237 236 230 227 218
298 287 290 307 314 309 296 300 296 288 339 358 353 334 319 309 302 300 296 289 287 284 276 269 262 261 256 252 248 244 243 245 245 243 241 233 233 238 233 226 243 234 233 233 237 236 227 228 220
284 275 289 301 325 286 311 280 170 107 44 57 352 331 322 314 309 305 301 295 290 284 276 268 261 256 255 250 249 246 245 241 240 241 239 234 228 229 234 236 228 238 231 233 230 229 232 226 222
291 337 316 310 329 304 6 297 289 147 163 283 332 332 325 319 313 307 303 299 291 283 279 271 260 256 251 249 248 247 240 236 234 233 234 234 229 226 225 229 230 221 234 236 235 227 229 225 228
272 279 300 312 281 302 154 235 244 176 337 334 337 334 329 322 316 311 307 306 294 282 280 272 260 254 252 248 246 244 240 238 238 235 231 229 229 225 224 227 229 227 220 235 237 233 228 231 237
308 312 295 275 234 242 142 283 270 7 346 340 340 337 332 328 322 317 315 313 299 291 276 270 260 256 253 253 251 247 240 237 236 232 227 224 224 226 225 228 229 231 229 223 231 235 236 238 235
331 303 213 199 206 343 136 249 292 17 3 352 341 337 337 334 332 329 329 328 313 294 284 277 273 269 260 251 254 250 244 234 230 229 225 220 222 224 226 226 228 232 231 234 230 235 238 235 238
13 360 13 302 333 324 175 230 200 354 3 350 339 330 331 335 338 342 345 347 321 308 297 287 276 274 259 253 253 245 237 232 222 222 222 221 223 228 225 224 226 230 235 232 237 232 238 241 244
87 58 350 272 220 267 251 243 248 359 349 342 334 335 340 340 343 345 353 349 341 328 320 304 294 292 277 262 249 242 239 233 226 217 221 223 226 226 227 223 224 230 227 234 229 238 234 235 238
357 124 237 186 317 299 261 251 258 342 320 329 336 339 343 347 351 353 357 357 348 332 318 321 315 305 282 263 249 239 236 231 228 218 214 222 224 225 226 225 223 225 225 226 230 236 242 233 234
171 176 220 280 263 306 309 279 175 264 285 324 334 340 347 351 355 359 4 4 357 353 339 316 309 322 307 269 254 238 234 232 226 219 215 222 228 220 220 224 227 226 227 227 230 232 239 246 240
183 237 256 267 81 261 271 276 215 225 298 320 322 335 356 1 3 11 13 12 6 359 0 2 298 313 298 281 255 245 235 227 224 221 218 223 228 232 227 225 227 229 231 232 238 242 238 244 248
Height
1511 1513 1517 1520 1521 1513 1502 1498 1503 1507 1510 1509 1511 1509 1508 1509 1507 1516 1521 1518 1517 1519 1522 1523 1524 1526 1528 1529 1531 1533 1534 1536 1537 1537 1538 1539 1540 1541 1541 1542 1542 1543 1545 1546 1546 1547 1548 1548 1548
1513 1515 1518 1518 1516 1509 1496 1495 1506 1506 1512 1515 1515 1515 1513 1510 1517 1520 1520 1518 1519 1520 1522 1524 1525 1527 1528 1530 1532 1534 1536 1537 1537 1538 1539 1540 1541 1542 1542 1543 1544 1545 1546 1547 1548 1548 1549 1550 1550
1514 1517 1518 1512 1506 1503 1496 1502 1502 1513 1516 1515 1514 1516 1513 1515 1520 1522 1520 1519 1519 1519 1522 1524 1526 1527 1528 1530 1533 1535 1536 1537 1538 1539 1540 1541 1541 1542 1543 1544 1546 1547 1548 1548 1549 1550 1550 1551 1552
1518 1520 1519 1512 1504 1499 1505 1507 1510 1514 1517 1517 1516 1513 1519 1521 1522 1522 1520 1520 1519 1520 1522 1523 1526 1527 1528 1531 1532 1535 1536 1538 1539 1540 1541 1542 1542 1543 1544 1545 1546 1548 1550 1550 1550 1551 1552 1552 1553
1519 1517 1512 1509 1500 1507 1511 1513 1516 1514 1515 1516 1518 1511 1517 1522 1522 1523 1522 1521 1521 1521 1523 1524 1525 1527 1528 1530 1532 1534 1535 1537 1539 1539 1540 1541 1543 1543 1544 1546 1547 1549 1551 1551 1552 1553 1553 1553 1554
1519 1516 1510 1506 1500 1512 1515 1517 1517 1516 1517 1518 1519 1517 1519 1523 1524 1523 1523 1523 1522 1522 1523 1524 1526 1527 1528 1530 1531 1533 1535 1536 1538 1539 1540 1541 1542 1543 1545 1546 1548 1549 1550 1552 1553 1554 1554 1554 1555
1516 1513 1504 1500 1501 1512 1514 1520 1518 1516 1516 1518 1522 1518 1520 1524 1523 1523 1523 1523 1523 1523 1523 1524 1525 1526 1527 1529 1530 1531 1533 1535 1537 1538 1540 1540 1541 1542 1544 1545 1547 1549 1550 1552 1553 1554 1555 1556 1556
1519 1516 1508 1505 1504 1508 1521 1521 1523 1522 1517 1522 1523 1517 1518 1522 1522 1522 1523 1524 1524 1524 1523 1524 1525 1525 1526 1527 1528 1529 1531 1533 1535 1536 1538 1539 1541 1542 1543 1544 1546 1548 1549 1551 1553 1554 1555 1556 1557
1523 1516 1505 1503 1514 1514 1523 1523 1523 1524 1523 1522 1522 1522 1522 1522 1522 1523 1524 1523 1523 1523 1524 1524 1524 1524 1525 1526 1527 1528 1528 1530 1532 1533 1535 1537 1538 1540 1541 1543 1544 1546 1548 1550 1551 1552 1554 1555 1556
1521 1516 1508 1519 1521 1520 1523 1525 1524 1525 1520 1520 1520 1521 1521 1521 1522 1522 1522 1523 1523 1522 1522 1523 1524 1524 1524 1525 1525 1526 1527 1527 1528 1530 1532 1534 1535 1537 1539 1540 1543 1544 1546 1548 1550 1551 1552 1554 1555
1523 1516 1520 1522 1526 1527 1525 1525 1524 1523 1520 1519 1519 1519 1520 1520 1520 1520 1520 1520 1521 1521 1521 1521 1522 1522 1523 1523 1523 1525 1525 1525 1526 1526 1528 1530 1532 1535 1536 1538 1540 1542 1543 1546 1548 1549 1550 1552 1554
1523 1524 1525 1525 1526 1526 1524 1523 1521 1520 1517 1518 1517 1518 1518 1517 1517 1516 1516 1516 1517 1517 1517 1518 1518 1519 1520 1521 1521 1522 1523 1524 1525 1524 1525 1526 1529 1531 1533 1535 1536 1538 1540 1543 1545 1546 1548 1550 1554
1523 1523 1525 1525 1525 1524 1522 1520 1519 1513 1514 1513 1513 1513 1512 1512 1511 1511 1511 1510 1511 1510 1511 1513 1513 1514 1516 1516 1517 1518 1518 1519 1521 1522 1523 1523 1525 1527 1529 1531 1532 1535 1537 1539 1541 1544 1548 1549 1551
1527 1526 1524 1523 1523 1522 1520 1516 1515 1509 1508 1508 1508 1508 1508 1507 1507 1507 1506 1505 1505 1505 1505 1506 1507 1508 1509 1510 1511 1512 1513 1514 1515 1517 1518 1520 1521 1522 1525 1528 1529 1530 1533 1535 1537 1540 1545 1547 1549
1527 1524 1518 1519 1520 1520 1520 1506 1501 1503 1505 1504 1503 1502 1503 1503 1503 1502 1502 1500 1499 1498 1498 1499 1499 1500 1502 1503 1504 1505 1506 1508 1509 1510 1513 1515 1516 1518 1520 1522 1524 1526 1528 1532 1534 1536 1540 1544 1546
1523 1522 1515 1518 1520 1518 1522 1501 1497 1502 1504 1502 1501 1499 1499 1499 1498 1497 1495 1494 1493 1491 1489 1490 1492 1492 1493 1494 1496 1497 1498 1500 1502 1504 1506 1508 1510 1512 1514 1516 1519 1521 1525 1527 1529 1531 1534 1537 1541
1518 1514 1512 1514 1517 1519 1520 1503 1502 1503 1501 1498 1497 1496 1495 1492 1491 1490 1489 1488 1486 1484 1482 1482 1482 1482 1483 1484 1486 1487 1489 1491 1493 1496 1498 1501 1504 1506 1508 1510 1513 1516 1520 1522 1524 1526 1529 1533 1534
1519 1517 1512 1517 1512 1514 1512 1499 1499 1496 1494 1491 1490 1490 1489 1488 1486 1485 1484 1483 1481 1478 1476 1474 1473 1473 1474 1474 1475 1476 1478 1480 1484 1486 1488 1492 1496 1499 1501 1503 1507 1510 1512 1514 1518 1520 1524 1527 1529
1531 1533 1530 1519 1515 1516 1507 1496 1495 1490 1488 1486 1485 1485 1485 1484 1483 1482 1480 1477 1474 1472 1468 1464 1462 1463 1464 1464 1464 1466 1466 1470 1472 1475 1480 1483 1486 1491 1495 1495 1499 1502 1505 1508 1510 1514 1517 1520 1524
1530 1529 1521 1516 1518 1519 1506 1493 1488 1482 1484 1487 1487 1486 1484 1481 1478 1474 1471 1468 1465 1461 1459 1456 1453 1453 1454 1454 1454 1456 1459 1460 1463 1465 1467 1473 1477 1481 1486 1490 1491 1495 1497 1500 1503 1507 1509 1512 1516
1531 1528 1523 1527 1522 1514 1507 1482 1478 1483 1485 1486 1484 1484 1482 1478 1472 1468 1464 1459 1455 1451 1448 1446 1445 1444 1444 1444 1447 1447 1449 1451 1453 1454 1458 1462 1467 1470 1473 1478 1483 1485 1489 1491 1495 1498 1502 1504 1507
1537 1528 1529 1529 1535 1517 1517 1503 1476 1483 1484 1483 1482 1481 1479 1474 1469 1463 1456 1450 1446 1441 1439 1437 1436 1434 1435 1437 1438 1438 1438 1440 1440 1444 1449 1453 1458 1462 1465 1468 1473 1478 1481 1483 1486 1489 1493 1496 1498
1530 1531 1531 1535 1538 1536 1511 1519 1473 1473 1481 1483 1481 1478 1475 1469 1463 1456 1448 1442 1436 1432 1430 1428 1427 1426 1426 1429 1429 1430 1431 1431 1434 1438 1440 1445 1449 1453 1456 1459 1463 1467 1472 1475 1479 1482 1484 1488 1493
1531 1531 1531 1538 1532 1524 1506 1510 1480 1482 1484 1480 1480 1476 1470 1464 1457 1448 1441 1433 1427 1424 1423 1420 1418 1417 1418 1417 1416 1418 1420 1422 1427 1430 1432 1436 1440 1445 1449 1451 1455 1459 1463 1468 1471 1474 1477 1481 1485
1531 1533 1516 1518 1518 1488 1520 1516 1479 1485 1486 1485 1477 1471 1467 1459 1450 1442 1433 1424 1419 1418 1417 1415 1413 1411 1411 1409 1406 1406 1408 1412 1418 1422 1425 1428 1433 1436 1440 1445 1447 1450 1455 1459 1464 1467 1469 1473 1477
1537 1539 1524 1513 1499 1498 1521 1503 1482 1485 1487 1490 1486 1476 1466 1456 1448 1439 1429 1421 1417 1416 1414 1412 1408 1404 1403 1401 1397 1398 1401 1404 1407 1413 1419 1422 1425 1429 1433 1437 1441 1444 1448 1453 1456 1460 1463 1466 1469
1534 1531 1537 1532 1530 1520 1490 1488 1481 1482 1486 1486 1482 1473 1464 1456 1447 1439 1430 1423 1417 1412 1411 1408 1403 1398 1394 1391 1390 1392 1395 1399 1401 1404 1411 1417 1420 1423 1427 1431 1434 1438 1442 1446 1450 1452 1455 1459 1462
1533 1537 1529 1529 1511 1500 1481 1482 1483 1491 1489 1485 1478 1472 1465 1457 1448 1439 1431 1423 1417 1411 1406 1403 1399 1394 1390 1387 1387 1387 1390 1392 1396 1399 1403 1409 1414 1418 1422 1426 1430 1433 1435 1439 1443 1445 1447 1451 1454
1531 1529 1532 1531 1522 1511 1496 1477 1493 1492 1489 1485 1480 1473 1466 1457 1450 1441 1433 1425 1418 1409 1402 1398 1393 1390 1388 1386 1385 1385 1385 1387 1390 1394 1397 1403 1408 1412 1416 1421 1424 1428 1430 1433 1436 1439 1441 1442 1446
1525 1525 1521 1522 1517 1516 1511 1489 1483 1483 1483 1482 1478 1473 1466 1458 1450 1443 1435 1427 1418 1409 1400 1393 1389 1388 1387 1386 1383 1382 1382 1383 1386 1389 1392 1398 1401 1406 1411 1415 1418 1421 1424 1427 1429 1432 1434 1435 1437